Tampa Macdill AFB, FL

5:20 PM EDT on October 14, 2019 (GMT -0400)
MacDill Air Force Base

Weather History for KMCF - August, 2019

Change the Weather History Date:

Tuesday, August 20, 2019

  Actual Average Record
Temperature  
Mean Temperature 83 °F -  
Max Temperature 90 °F 88 °F 95 °F (2007)
Min Temperature 76 °F 73 °F 73 °F (1996)
Cooling Degree Days 18    
Growing Degree Days 33 (Base 50)    
Moisture  
Dew Point 75 °F    
Average Humidity 83    
Maximum Humidity 94    
Minimum Humidity 55    
Precipitation  
Precipitation 0.55 in - - ()
Sea Level Pressure  
Sea Level Pressure 30.09 in    
Wind  
Wind Speed 6 mph (ESE)    
Max Wind Speed 24 mph    
Max Gust Speed 30 mph    
Visibility 9 miles    
Events Rain , Thunderstorm    
Averages and records for this station are not official NWS values.
T = Trace of Precipitation, MM = Missing Value Source: NWS Daily Summary

Daily Weather History Graph

Daily Weather History Graph

Search for Another Location

Airport or City:

Astronomy

Aug. 20, 2019 Rise Set
Actual Time 7:02 AM EDT 8:03 PM EDT
Civil Twilight 6:38 AM EDT 8:28 PM EDT
Nautical Twilight 6:09 AM EDT 8:56 PM EDT
Astronomical Twilight 5:40 AM EDT 9:26 PM EDT
Moon 11:16 PM EDT (8/20) 11:17 AM EDT (8/20)
Length of Visible Light 13h 49m
Length of Day
13h 00m
Waning Gibbous, 78% of the Moon is Illuminated
Aug 20
Waning Gibbous
Aug 23
Last Quarter
Aug 30
New
Sep 5
First Quarter
Sep 14
Full

Hourly Weather History & Observations

Time (EDT) Temp. Heat Index Dew Point Humidity Pressure Visibility Wind Dir Wind Speed Gust Speed Precip Events Conditions
12:56 AM 79.5 °F - 73.4 °F 81% 30.10 in 10.0 mi ESE 6.9 mph - N/A   Clear
1:56 AM 77.0 °F - 73.4 °F 89% 30.08 in 10.0 mi East 4.6 mph - N/A   Clear
3:56 AM 76.1 °F - 73.6 °F 92% 30.05 in 10.0 mi NE 3.5 mph - N/A   Clear
4:56 AM 76.5 °F - 74.3 °F 93% 30.05 in 10.0 mi East 6.9 mph - N/A   Clear
5:56 AM 77.0 °F - 74.5 °F 92% 30.06 in 10.0 mi East 6.9 mph - N/A   Clear
6:56 AM 76.6 °F - 74.5 °F 93% 30.08 in 10.0 mi East 5.8 mph - N/A   Clear
7:56 AM 77.9 °F - 75.4 °F 92% 30.10 in 10.0 mi East 5.8 mph - N/A   Clear
9:56 AM 83.1 °F 91.3 °F 75.9 °F 79% 30.12 in 10.0 mi SE 6.9 mph - N/A   Clear
10:56 AM 84.6 °F 92.4 °F 74.8 °F 72% 30.12 in 10.0 mi SE 6.9 mph - N/A   Scattered Clouds
11:01 AM 86.0 °F 95.1 °F 75.2 °F 70% 30.12 in 10.0 mi ESE 6.9 mph - N/A   Mostly Cloudy
11:09 AM 86.0 °F 95.1 °F 75.2 °F 70% 30.12 in 10.0 mi ESE 6.9 mph - N/A   Light Drizzle
11:19 AM 86.0 °F 95.1 °F 75.2 °F 70% 30.12 in 10.0 mi ESE 6.9 mph - N/A   Scattered Clouds
11:49 AM 86.0 °F 95.1 °F 75.2 °F 70% 30.12 in 10.0 mi SE 6.9 mph - N/A   Scattered Clouds
11:54 AM 86.0 °F 95.1 °F 75.2 °F 70% 30.12 in 10.0 mi SSE 9.2 mph - N/A   Mostly Cloudy
11:56 AM 86.5 °F 94.6 °F 74.1 °F 66% 30.12 in 10.0 mi SSE 6.9 mph - 0.00 in   Scattered Clouds
12:23 PM 87.8 °F 95.6 °F 73.4 °F 62% 30.11 in 10.0 mi ESE 9.2 mph - N/A   Light Drizzle
2:56 PM 90.0 °F 97.9 °F 72.7 °F 57% 30.06 in 10.0 mi SW 5.8 mph - N/A   Clear
3:07 PM 89.6 °F 98.2 °F 73.4 °F 59% 30.06 in 10.0 mi NNE 4.6 mph - N/A   Light Drizzle
3:13 PM 89.6 °F 96.2 °F 71.6 °F 55% 30.06 in 10.0 mi ENE 3.5 mph - N/A   Mostly Cloudy
3:41 PM 89.6 °F 98.2 °F 73.4 °F 59% 30.04 in 10.0 mi NE 3.5 mph - N/A Thunderstorm Thunderstorm
3:52 PM 86.0 °F 95.1 °F 75.2 °F 70% 30.06 in 10.0 mi SE 21.9 mph 29.9 mph N/A Rain , Thunderstorm Light Thunderstorms and Rain
3:56 PM 83.7 °F 91.3 °F 74.8 °F 75% 30.07 in 10.0 mi SE 23.0 mph 29.9 mph 0.00 in Rain , Thunderstorm Light Thunderstorms and Rain
4:01 PM 80.6 °F 86.2 °F 75.2 °F 84% 30.07 in 6.0 mi SSE 24.2 mph 29.9 mph N/A Rain , Thunderstorm Thunderstorms and Rain
4:06 PM 78.8 °F - 73.4 °F 83% 30.08 in 1.0 mi SSE 20.7 mph 29.9 mph N/A Rain , Thunderstorm Heavy Thunderstorms and Rain
4:16 PM 77.0 °F - 73.4 °F 89% 30.07 in 1.0 mi SSW 4.6 mph - N/A Rain , Thunderstorm Heavy Thunderstorms and Rain
4:21 PM 77.0 °F - 73.4 °F 89% 30.07 in 1.2 mi SW 6.9 mph - N/A Rain , Thunderstorm Heavy Thunderstorms and Rain
4:26 PM 77.0 °F - 73.4 °F 89% 30.06 in 5.0 mi WSW 9.2 mph - N/A Rain , Thunderstorm Light Thunderstorms and Rain
4:46 PM 77.0 °F - 75.2 °F 94% 30.06 in 10.0 mi West 5.8 mph - N/A Rain , Thunderstorm Light Rain
4:56 PM 77.2 °F - 74.3 °F 91% 30.06 in 10.0 mi WSW 6.9 mph - 0.55 in Thunderstorm Light Drizzle
5:06 PM 77.0 °F - 73.4 °F 89% 30.06 in 10.0 mi WSW 3.5 mph - N/A Thunderstorm Mostly Cloudy
5:56 PM 79.0 °F - 75.0 °F 88% 30.06 in 10.0 mi NNW 3.5 mph - 0.00 in   Partly Cloudy
6:56 PM 78.8 °F - 75.6 °F 90% 30.06 in 10.0 mi Calm Calm - N/A   Scattered Clouds
7:56 PM 78.6 °F - 76.1 °F 92% 30.08 in 10.0 mi Calm Calm - N/A   Scattered Clouds
8:49 PM 78.8 °F - 75.2 °F 89% 30.09 in 10.0 mi Calm Calm - N/A   Light Drizzle
8:56 PM 78.3 °F - 75.9 °F 92% 30.09 in 10.0 mi Calm Calm - 0.00 in   Light Drizzle
9:07 PM 78.8 °F - 75.2 °F 89% 30.09 in 10.0 mi Calm Calm - N/A   Scattered Clouds
9:09 PM 78.8 °F - 75.2 °F 89% 30.10 in 10.0 mi Calm Calm - N/A   Light Drizzle
9:37 PM 78.8 °F - 77.0 °F 94% 30.10 in 10.0 mi Calm Calm - N/A   Overcast
9:40 PM 78.8 °F - 77.0 °F 94% 30.11 in 10.0 mi Calm Calm - N/A   Light Drizzle
9:55 PM 78.8 °F - 77.0 °F 94% 30.10 in 10.0 mi NE 4.6 mph - N/A   Overcast
9:56 PM 78.8 °F - 76.3 °F 92% 30.10 in 10.0 mi NE 4.6 mph - 0.00 in   Overcast
10:41 PM 78.8 °F - 75.2 °F 89% 30.12 in 10.0 mi Calm Calm - N/A   Light Drizzle
10:46 PM 78.8 °F - 75.2 °F 89% 30.11 in 10.0 mi Calm Calm - N/A   Mostly Cloudy
10:56 PM 77.9 °F - 75.4 °F 92% 30.11 in 10.0 mi Calm Calm - 0.00 in   Mostly Cloudy
11:22 PM 78.8 °F - 75.2 °F 89% 30.12 in 10.0 mi Calm Calm - N/A   Partly Cloudy
11:56 PM 77.7 °F - 75.2 °F 92% 30.11 in 10.0 mi Calm Calm - 0.00 in   Clear